sat.trackr.live / text

‹ back to catalog

STARLINK-34738

NORAD 64951 · 2025-158V

PAYLOAD ACTIVE UNKNOWN

§ Identity

Operator
Country
US
Launch date
2025-07-27
Launch site
AFWTR
Launch vehicle
Mass (kg)
RCS (m²)

Purposes: comms

External: N2YO · Heavens-Above · Gunter

§ Orbital elements

Epoch: 2026-09-20T12:37:33.284352Z

Period
93.91 min
Inclination
97.2848°
Eccentricity
0.0000282
Mean motion
15.33446528 rev/d
Perigee alt
465.3 km
Apogee alt
465.7 km
Semi-major
6,843.7 km
B*
3.2142e-4
RAAN
121.8852°
Arg perigee
16.7094°
Mean anomaly
343.4158°
Rev number
6,471

§ Raw data

STARLINK-347381 64951U 25158V   26263.52607968  .00010316  00000+0  32142-3 0  99932 64951  97.2848 121.8852 0000282  16.7094 343.4158 15.33446528 64718

JSON: /api/v1/satellites/64951 · /tle

For live sub-satellite position, see the globe view (requires WebGL).

§ Visibility from observer

Set your observer location to see the next 7 days of passes ≥ 10°. The values pass through the URL so the page stays shareable.

No JS? Fill the form by hand. The geolocation button needs JavaScript.